This is the latest recevied weather packets stored in our database for station/object G0TRT-13. If no packets are shown the sender has not sent any weather packets the latest 10 day(s).
| Time | Temp. | Humidity | Pressure | Rain* | Wind** | Luminosity | Snow |
|---|---|---|---|---|---|---|---|
| 1777468323 | 18.33° C | 36% | 1021.1 hPa | 0 mm | - | - | - |
| 1777468024 | 18.33° C | 35% | 1021.1 hPa | 0 mm | - | - | - |
| 1777467723 | 18.33° C | 35% | 1021 hPa | 0 mm | - | - | - |
| 1777467423 | 18.33° C | 37% | 1021.1 hPa | 0 mm | - | - | - |
| 1777467124 | 18.33° C | 35% | 1021 hPa | 0 mm | - | - | - |
| 1777466823 | 18.33° C | 35% | 1021 hPa | 0 mm | - | - | - |
| 1777466523 | 18.89° C | 36% | 1021.2 hPa | 0 mm | - | - | - |
| 1777466223 | 19.44° C | 37% | 1021.1 hPa | 0 mm | - | - | - |
| 1777465924 | 18.89° C | 35% | 1021.2 hPa | 0 mm | - | - | - |
| 1777465623 | 18.89° C | 35% | 1021.2 hPa | 0 mm | - | - | - |
| 1777465324 | 18.89° C | 36% | 1021.2 hPa | 0 mm | - | - | - |
| 1777465022 | 18.89° C | 37% | 1021.3 hPa | 0 mm | - | - | - |
| 1777464723 | 18.89° C | 37% | 1021.3 hPa | 0 mm | - | - | - |
| 1777464423 | 18.89° C | 38% | 1021.2 hPa | 0 mm | - | - | - |
| 1777464123 | 18.33° C | 38% | 1021.4 hPa | 0 mm | - | - | - |
| 1777463822 | 18.33° C | 37% | 1021.4 hPa | 0 mm | - | - | - |
| 1777463522 | 18.33° C | 38% | 1021.4 hPa | 0 mm | - | - | - |
| 1777463223 | 18.33° C | 37% | 1021.4 hPa | 0 mm | - | - | - |
| 1777462922 | 18.33° C | 36% | 1021.5 hPa | 0 mm | - | - | - |
| 1777462622 | 18.33° C | 39% | 1021.4 hPa | 0 mm | - | - | - |
| 1777462324 | 18.33° C | 38% | 1021.4 hPa | 0 mm | - | - | - |
| 1777462023 | 18.33° C | 40% | 1021.5 hPa | 0 mm | - | - | - |
| 1777461717 | 18.33° C | 41% | 1021.5 hPa | 0 mm | - | - | - |
| 1777461411 | 17.78° C | 40% | 1021.5 hPa | 0 mm | - | - | - |
| 1777461105 | 17.78° C | 43% | 1021.4 hPa | 0 mm | - | - | - |
* Rain latest hour (hover to see other rain measurements)
** Current wind speed in m/s (hover to see current wind gust speed)